Location: Maccacari
(45.1333°N, 11.1333°E)
Time: 14:40:33
(UTC+00:00)

S-56A Canister/Altair - Pass Details

Date: 25 January 2021
Orbit: 631 x 2501 km, 38.9° (Epoch: 01 March)

Event Time Altitude Azimuth Distance (km) Brightness Sun altitude
Rises 04:34:27 0° 265° (W) 2,920 - -22.6°
Reaches altitude 10° 04:36:44 10° 256° (WSW) 2,052 - -22.2°
Exits shadow 04:39:52 32° 217° (SW) 1,195 8.2 -21.6°
Maximum altitude 04:40:56 36° 189° (S) 1,144 8.3 -21.4°
Drops below altitude 10° 04:46:08 10° 124° (SE) 2,560 11.1 -20.5°
Sets 04:49:19 0° 116° (ESE) 3,764 12.4 -19.9°
